Regional Weather Roundup
Issued by NWS

Home | Current Version | Previous Version | Text Only | Print | Product List | Glossary On
Versions: 1 2 3 4 5 6 7 8 9 10 11 12 13 14 15 16 17 18 19 20 21 22 23 24 25 26 27 28 29 30 31 32 33 34 35 36 37 38 39 40 41 42 43 44 45 46 47 48 49 50
000
ASUS43 KMKX 110921
RWRWI

WISCONSIN REGIONAL WEATHER ROUNDUP
NATIONAL WEATHER SERVICE MILWAUKEE/SULLIVAN WI
300 AM CST SUN DEC 11 2016

NOTE: "FAIR" INDICATES FEW OR NO CLOUDS BELOW 12,000 FEET WITH NO
SIGNIFICANT WEATHER AND/OR OBSTRUCTIONS TO VISIBILITY.

WIZ001-002-006>008-014>016-023>028-111000-
NORTHWEST WISCONSIN

CITY           SKY/WX    TMP DP  RH WIND       PRES   REMARKS
SUPERIOR ARPT  CLOUDY    10   5  80 CALM      30.19F
ASHLAND        CLOUDY     6   2  83 CALM      30.21S
HAYWARD        CLOUDY    11   6  81 E6        30.13F WCI   1
SIREN          FLURRIES  12   8  82 E5        30.11F WCI   4
CUMBERLAND     LGT SNOW  12   9  85 E7        30.08F WCI   2
RICE LAKE      LGT SNOW  13  10  84 E6        30.11F WCI   4
CHETEK         LGT SNOW  14  10  86 E6        30.10F WCI   5
LADYSMITH      LGT SNOW  13   9  85 E7        30.12F WCI   3
EAU CLAIRE     LGT SNOW  16  13  88 NE7       30.09S FOG     WCI   6
MENOMONIE      LGT SNOW  16  13  88 E8        30.09S WCI   5
NEW RICHMOND   LGT SNOW  15  10  83 E8        30.07F WCI   3
OSCEOLA        LGT SNOW  15  11  85 E9        30.11F WCI   3
$$

WIZ003>005-009-010-017-018-111000-
NORTH CENTRAL WISCONSIN

CITY           SKY/WX    TMP DP  RH WIND       PRES   REMARKS
MANITOWISH WTR FLURRIES   8   4  86 E3        30.12F
ARBOR VITAE    FLURRIES  11   7  82 SE5       30.12F WCI   3
WOODRUFF       FLURRIES  11   7  82 SE5       30.12F WCI   3
RHINELANDER    CLOUDY    10   6  84 E8        30.13F WCI  -2
EAGLE RIVER    FLURRIES   8   2  78 SE5       30.13F WCI  -1
LAND O LAKES   FLURRIES   6   2  85 CALM      30.14F
PHILLIPS       FLURRIES   9   6  87 E6        30.11F WCI  -1
TOMAHAWK       LGT SNOW  10   7  88 CALM      30.12F
MEDFORD        LGT SNOW  11   8  85 E8        30.07F WCI  -1
MERRILL        LGT SNOW  12   9  87 E3        30.14F
$$

WIZ029-030-035-036-043>047-111000-
CENTRAL WISCONSIN

CITY           SKY/WX    TMP DP  RH WIND       PRES   REMARKS
WAUSAU         LGT SNOW  12   9  87 E8        30.13F FOG     WCI   0
MOSINEE        LGT SNOW  14  12  92 E8        30.13F WCI   3
MARSHFIELD     LGT SNOW  14  11  87 E10       30.09F FOG     WCI   1
STEVENS POINT  LGT SNOW  13  11  91 E9        30.14F WCI   1
WAUPACA        LGT SNOW  19  15  85 CALM      30.18F
WAUTOMA        LGT SNOW  18  16  93 E6        30.15F FOG     WCI   9
WISC RAPIDS    LGT SNOW  16  14  92 E8        30.13F FOG     WCI   5
CAMP DOUGLAS   LGT SNOW  18  16  93 E9        30.09F FOG     WCI   6
$$

WIZ011>013-019>022-031-037>040-048>050-111000-
NORTHEAST WISCONSIN

CITY           SKY/WX    TMP DP  RH WIND       PRES   REMARKS
ANTIGO         LGT SNOW  10   7  89 E5        30.14F WCI   1
SHAWANO        LGT SNOW  17  13  85 E7        30.21F WCI   7
OCONTO         CLOUDY    15  11  87 NE6       30.25F WCI   6
STURGEON BAY   LGT SNOW  17  14  88 CALM      30.24F FOG
GREEN BAY      LGT SNOW  19  16  88 E6        30.20F FOG     WCI  11
MANITOWOC      LGT SNOW  18  16  92 N3        30.23F FOG
APPLETON       LGT SNOW  19  18  93 E7        30.16F WCI  10
CLINTONVILLE   LGT SNOW  16  12  86 E7        30.19F WCI   6
OSHKOSH        LGT SNOW  20  17  88 SE8       30.17F FOG     WCI  10
$$

WIZ032>034-041-042-053>061-111000-
SOUTHWEST WISCONSIN

CITY           SKY/WX    TMP DP  RH WIND       PRES   REMARKS
LA CROSSE      LGT SNOW  20  16  84 E7        30.08F FOG     WCI  11
SPARTA         LGT SNOW  18  16  93 E8        30.08F WCI   8
VIROQUA        CLOUDY    19  18  95 E14       30.02F VSB 1/2 WCI   5
BOSCOBEL       LGT SNOW  23  20  88 CALM      30.07F FOG
PRAIRIE DU CHI LGT SNOW  23  19  85 E9        30.06F WCI  13
PLATTEVILLE    CLOUDY    23  22  99 SE13      30.07F WCI  11
$$

WIZ056-057-062-063-064-067-068-111000-
SOUTH CENTRAL WISCONSIN

CITY           SKY/WX    TMP DP  RH WIND       PRES   REMARKS
REEDSBURG      LGT SNOW  19  19  97 E5        30.09F WCI  12
BARABOO/DELLS  LGT SNOW  19  17  92 E8        30.09F WCI   9
LONE ROCK      LGT SNOW  21  19  92 E8        30.09F VSB 1   WCI  11
MINERAL POINT  LGT SNOW  23  23 100 SE12G18   30.06F WCI  12
MADISON        LGT SNOW  20  18  92 SE8       30.12F FOG     WCI  10
MIDDLETON      CLOUDY    23  20  91 SE8       30.12F WCI  13
WATERTOWN      LGT SNOW  21  21 100 E7        30.14F WCI  12
MONROE         LGT SNOW  23  21  93 E8        30.09F WCI  14
JANESVILLE     LGT SNOW  25  23  93 SE9       30.13F WCI  15
$$

WIZ051-052-058>065-066-070>072-111000-
SOUTHEAST WISCONSIN

CITY           SKY/WX    TMP DP  RH WIND       PRES   REMARKS
MILWAUKEE      LGT SNOW  24  21  88 S7        30.19F FOG     WCI  16
WAUKESHA       LGT SNOW  21  19  93 SE7       30.18F WCI  13
MILWAUKEE/TIMM LGT SNOW  23  19  86 SE3       30.20F
RACINE         LGT SNOW  25  22  88 S6        30.19F FOG     WCI  18
BURLINGTON     LGT SNOW  27  26  96 SE5       30.17F WCI  22
KENOSHA        LGT SNOW  25  22  88 S10       30.18F FOG     WCI  15
FOND DU LAC    LGT SNOW  21  16  81 SE10      30.18F WCI  10
SHEBOYGAN      LGT SNOW  20  17  88 E6        30.20F FOG     WCI  12
WEST BEND      LGT SNOW  21  21 100 SE3       30.17F
JUNEAU         LGT SNOW  20  18  93 E7        30.16F VSB 1   WCI  11
$$

LSZ147-162-111000-
LAKE SUPERIOR

STATION/POSITION TIME  TEMP    WIND        PRES    WAVE
                       AIR SEA DIR/SP/G            HT/PER
                 (UTC) (F)     (DEG/KT/KT) (MB)    (FT/S)
DEVILS ISLAND    0900   15     180/  3/  3 1024.6F
PORT WING        0840    8     120/  3/  6 1023.0S
SAXON HARBOR     0840    7     190/  3/  5 1023.0F
$$

LMZ867-665-643>646-111000-
LAKE MICHIGAN

STATION/POSITION TIME  TEMP    WIND        PRES    WAVE
                       AIR SEA DIR/SP/G            HT/PER
                 (UTC) (F)     (DEG/KT/KT) (MB)    (FT/S)
CHAMBERS ISLAND  0840   17      CALM  /  3 1024.0F
NORTHPORT PIER   0904   18      CALM  /  2 1024.4
SISTER BAY       0850   17     180/  6/  7   N/A
ALGOMA LAKESHORE 0836           20/  2/  5   N/A
KEWAUNEE LAKESHO 0854   17     330/  3/  5 1023.3F
SHEBOYGAN LAKESH 0900   23     350/  1/  2 1023.8F
PORT WASHINGTON  0840   24     230/  5/  8 1024.0F
KENOSHA   LAKESH 0900   27     190/ 12/ 18 1022.0
$$

TC  - TEMPERATURE IN CELSIUS
VSB - VISIBILITY IN STATUTE MILES
WCI - WIND CHILL INDEX
HX  - HEAT INDEX




USA.gov is the U.S. government's official web portal to all federal, state and local government web resources and services.